Fort Collins, CO

5:13 PM MDT on March 23, 2017 (GMT -0600)
Fort Collins-Loveland Municipal

Weather History for KFNL - October, 2012

Change the Weather History Date:

Sunday, October 7, 2012

  Actual Average Record
Temperature  
Mean Temperature 40 °F -  
Max Temperature 55 °F - 82 °F (2010)
Min Temperature 24 °F - 24 °F (2012)
Degree Days  
Heating Degree Days 26    
Month to date heating degree days  
Cooling Degree Days 0    
Month to date cooling degree days  
Moisture  
Dew Point 21 °F    
Average Humidity 53    
Maximum Humidity 100    
Minimum Humidity 22    
Precipitation  
Precipitation 0.00 in - 0.00 in (2017)
Sea Level Pressure  
Sea Level Pressure 30.14 in    
Wind  
Wind Speed 5 mph (SSW)    
Max Wind Speed 10 mph    
Max Gust Speed -    
Visibility 10 miles    
Events      
T = Trace of Precipitation, MM = Missing Value Source: NWS Daily Summary

Daily Weather History Graph

Daily Weather History Graph

Search for Another Location

Airport or City:

Trip Planner

Search our weather history database for the weather conditions in past years. The results will help you decide how hot, cold, wet, or windy it might be!

Date:

Astronomy

Oct. 07, 2012 Rise Set
Actual Time 7:03 AM MDT 6:31 PM MDT
Civil Twilight 6:35 AM MDT 6:58 PM MDT
Nautical Twilight 6:04 AM MDT 7:30 PM MDT
Astronomical Twilight 5:32 AM MDT 8:01 PM MDT
Moon 11:44 PM MDT (10/7) 1:42 PM MDT (10/7)
Length of Visible Light 12h 22m
Length of Day
11h 28m
Waning Gibbous, 55% of the Moon is Illuminated
Oct 7
Waning Gibbous
Oct 8
Last Quarter
Oct 15
New
Oct 21
First Quarter
Oct 29
Full

Hourly Weather History & Observations

Time (MDT) Temp. Windchill Dew Point Humidity Pressure Visibility Wind Dir Wind Speed Gust Speed Precip Events Conditions
12:15 AM 33.8 °F 28.6 °F 24.8 °F 70% 30.25 in 10.0 mi SSE 5.8 mph - N/A   Overcast
12:35 AM 33.8 °F 27.7 °F 24.8 °F 70% 30.25 in 10.0 mi SSE 6.9 mph - N/A   Overcast
12:55 AM 33.8 °F 27.0 °F 24.8 °F 70% 30.24 in 10.0 mi SSE 8.1 mph - N/A   Overcast
1:15 AM 33.8 °F 27.7 °F 24.8 °F 70% 30.24 in 10.0 mi South 6.9 mph - N/A   Overcast
1:35 AM 32.0 °F 26.4 °F 24.8 °F 75% 30.24 in 10.0 mi South 5.8 mph - N/A   Mostly Cloudy
1:55 AM 30.2 °F 24.3 °F 24.8 °F 80% 30.24 in 10.0 mi South 5.8 mph - N/A   Mostly Cloudy
2:15 AM 30.2 °F 24.3 °F 24.8 °F 80% 30.23 in 10.0 mi South 5.8 mph - N/A   Scattered Clouds
2:35 AM 30.2 °F 24.3 °F 24.8 °F 80% 30.22 in 10.0 mi South 5.8 mph - N/A   Partly Cloudy
2:55 AM 30.2 °F 24.3 °F 24.8 °F 80% 30.21 in 10.0 mi South 5.8 mph - N/A   Clear
3:15 AM 30.2 °F 25.4 °F 24.8 °F 80% 30.20 in 10.0 mi SSE 4.6 mph - N/A   Clear
3:35 AM 30.2 °F 25.4 °F 24.8 °F 80% 30.19 in 10.0 mi South 4.6 mph - N/A   Clear
4:15 AM 30.2 °F 26.7 °F 26.6 °F 86% 30.19 in 10.0 mi SSW 3.5 mph - N/A   Clear
4:35 AM 28.4 °F - 23.0 °F 80% 30.19 in 10.0 mi Calm Calm - N/A   Clear
4:55 AM 26.6 °F 21.2 °F 23.0 °F 86% 30.19 in 10.0 mi North 4.6 mph - N/A   Clear
5:35 AM 26.6 °F 22.6 °F 24.8 °F 93% 30.19 in 10.0 mi North 3.5 mph - N/A   Clear
5:55 AM 26.6 °F 21.2 °F 24.8 °F 93% 30.18 in 10.0 mi North 4.6 mph - N/A   Clear
6:15 AM 24.8 °F 20.5 °F 21.2 °F 86% 30.19 in 9.0 mi North 3.5 mph - N/A   Clear
6:35 AM 24.8 °F - 21.2 °F 86% 30.18 in 10.0 mi Calm Calm - N/A   Clear
6:55 AM 24.8 °F - 21.2 °F 86% 30.18 in 9.0 mi Calm Calm - N/A   Clear
7:15 AM 24.8 °F - 21.2 °F 86% 30.19 in 3.0 mi Calm Calm - N/A   Clear
7:55 AM 24.8 °F - 24.8 °F 100% 30.20 in 1.8 mi Calm Calm - N/A   Scattered Clouds
8:15 AM 26.6 °F 21.2 °F 26.6 °F 100% 30.20 in 10.0 mi North 4.6 mph - N/A   Clear
8:55 AM 30.2 °F 26.7 °F 28.4 °F 93% 30.20 in 10.0 mi NW 3.5 mph - N/A   Clear
9:15 AM 33.8 °F - 28.4 °F 81% 30.20 in 10.0 mi Calm Calm - N/A   Clear
9:35 AM 35.6 °F - 28.4 °F 75% 30.20 in 10.0 mi Calm Calm - N/A   Clear
10:15 AM 39.2 °F - 26.6 °F 61% 30.20 in 10.0 mi Calm Calm - N/A   Clear
10:35 AM 41.0 °F - 19.4 °F 42% 30.19 in 10.0 mi Calm Calm - N/A   Clear
10:55 AM 42.8 °F - 15.8 °F 34% 30.18 in 10.0 mi Calm Calm - N/A   Clear
11:15 AM 44.6 °F - 19.4 °F 37% 30.18 in 10.0 mi Calm Calm - N/A   Clear
11:35 AM 44.6 °F 43.1 °F 17.6 °F 34% 30.17 in 10.0 mi SW 3.5 mph - N/A   Clear
11:55 AM 44.6 °F - 19.4 °F 37% 30.17 in 10.0 mi Calm Calm - N/A   Clear
12:15 PM 46.4 °F 44.3 °F 19.4 °F 34% 30.16 in 10.0 mi West 4.6 mph - N/A   Clear
12:35 PM 46.4 °F 45.2 °F 19.4 °F 34% 30.15 in 10.0 mi North 3.5 mph - N/A   Clear
12:55 PM 48.2 °F - 19.4 °F 32% 30.14 in 10.0 mi Calm Calm - N/A   Clear
1:15 PM 50.0 °F - 17.6 °F 28% 30.13 in 10.0 mi NW 3.5 mph - N/A   Clear
1:35 PM 50.0 °F - 17.6 °F 28% 30.12 in 10.0 mi WNW 4.6 mph - N/A   Clear
1:55 PM 51.8 °F - 17.6 °F 26% 30.10 in 10.0 mi SSW 6.9 mph - N/A   Clear
2:15 PM 51.8 °F - 17.6 °F 26% 30.09 in 10.0 mi South 6.9 mph - N/A   Clear
2:35 PM 51.8 °F - 15.8 °F 24% 30.08 in 10.0 mi West 5.8 mph - N/A   Clear
2:55 PM 53.6 °F - 15.8 °F 22% 30.08 in 10.0 mi SW 5.8 mph - N/A   Clear
3:15 PM 53.6 °F - 17.6 °F 24% 30.07 in 10.0 mi WSW 3.5 mph - N/A   Clear
3:35 PM 53.6 °F - 15.8 °F 22% 30.07 in 10.0 mi West 3.5 mph - N/A   Clear
3:55 PM 55.4 °F - 19.4 °F 25% 30.07 in 10.0 mi SW 3.5 mph - N/A   Clear
4:15 PM 53.6 °F - 17.6 °F 24% 30.07 in 10.0 mi SE 5.8 mph - N/A   Clear
4:35 PM 55.4 °F - 17.6 °F 23% 30.06 in 10.0 mi South 10.4 mph - N/A   Clear
4:55 PM 53.6 °F - 17.6 °F 24% 30.05 in 10.0 mi South 9.2 mph - N/A   Clear
5:15 PM 53.6 °F - 17.6 °F 24% 30.05 in 10.0 mi South 8.1 mph - N/A   Clear
5:35 PM 53.6 °F - 17.6 °F 24% 30.06 in 10.0 mi SSW 9.2 mph - N/A   Clear
5:55 PM 51.8 °F - 17.6 °F 26% 30.05 in 10.0 mi South 9.2 mph - N/A   Clear
6:15 PM 51.8 °F - 17.6 °F 26% 30.06 in 10.0 mi South 8.1 mph - N/A   Clear
6:55 PM 44.6 °F 40.2 °F 19.4 °F 37% 30.06 in 10.0 mi South 8.1 mph - N/A   Clear
7:15 PM 44.6 °F 40.2 °F 19.4 °F 37% 30.06 in 10.0 mi South 8.1 mph - N/A   Clear
7:35 PM 42.8 °F 38.0 °F 19.4 °F 39% 30.06 in 10.0 mi South 8.1 mph - N/A   Clear
7:55 PM 42.8 °F 38.0 °F 19.4 °F 39% 30.07 in 10.0 mi South 8.1 mph - N/A   Clear
8:15 PM 41.0 °F 36.4 °F 19.4 °F 42% 30.07 in 10.0 mi SSW 6.9 mph - N/A   Clear
8:35 PM 41.0 °F 37.1 °F 19.4 °F 42% 30.07 in 10.0 mi SSW 5.8 mph - N/A   Clear
8:55 PM 41.0 °F 37.1 °F 19.4 °F 42% 30.07 in 10.0 mi SSW 5.8 mph - N/A   Clear
9:15 PM 41.0 °F 38.0 °F 19.4 °F 42% 30.07 in 10.0 mi SSW 4.6 mph - N/A   Clear
9:35 PM 41.0 °F 39.0 °F 21.2 °F 45% 30.07 in 10.0 mi SSW 3.5 mph - N/A   Clear
9:55 PM 39.2 °F 37.0 °F 21.2 °F 49% 30.07 in 10.0 mi South 3.5 mph - N/A   Clear
10:15 PM 39.2 °F 37.0 °F 21.2 °F 49% 30.06 in 10.0 mi South 3.5 mph - N/A   Clear
10:35 PM 39.2 °F - 21.2 °F 49% 30.07 in 10.0 mi Calm Calm - N/A   Clear
10:55 PM 39.2 °F - 21.2 °F 49% 30.06 in 10.0 mi Calm Calm - N/A   Clear
11:15 PM 39.2 °F - 23.0 °F 52% 30.06 in 10.0 mi Calm Calm - N/A   Clear
11:35 PM 35.6 °F 30.7 °F 21.2 °F 56% 30.06 in 10.0 mi North 5.8 mph - N/A   Clear
11:55 PM 37.4 °F 34.9 °F 21.2 °F 52% 30.05 in 10.0 mi North 3.5 mph - N/A   Clear